Regional Weather Roundup
Issued by NWS

Home | Current Version | Previous Version | Text Only | Print | Product List | Glossary Off
Versions: 1 2 3 4 5 6 7 8 9 10 11 12 13 14 15 16 17 18 19 20 21 22 23 24 25 26 27 28 29 30 31 32 33 34 35 36 37 38 39 40 41 42 43 44 45 46 47 48 49 50

218
ASUS44 KLIX 241610
RWRLA
LOUISIANA WEATHER ROUNDUP
NATIONAL WEATHER SERVICE NEW ORLEANS LA
1000 AM CST SAT JAN 24 2015

NOTE: "FAIR" INDICATES FEW OR NO CLOUDS BELOW 12,000 FEET WITH NO
      SIGNIFICANT WEATHER AND/OR OBSTRUCTIONS TO VISIBILITY.
      SKY/WX - SKY CONDITION AND SIGNIFICANT WEATHER.
      TMP - AIR TEMPERATURE.    DP   - DEWPOINT TEMPERATURE.
      RH  - RELATIVE HUMIDITY.  PRES - PRESSURE.
      HX  - HEAT INDEX.         WCI  - WIND CHILL INDEX.

*  THESE STATIONS ARE NOT NWS OR FAA STATIONS AND ARE NOT UNDER
   NWS QUALITY CONTROL.

LAZ040-048-061>063-065-066-069-241700-
SOUTHEAST LOUISIANA

CITY           SKY/WX    TMP DP  RH WIND       PRES   REMARKS
N.O. AUDUBON   NOT AVBL
N.O. INTL ARPT SUNNY     47  36  65 NW12      30.21R
N.O. LAKEFRONT SUNNY     46  38  73 NW16      30.21R
N.O. DOWNTOWN* FAIR      46  36  66 NW7       30.21S
SLIDELL        SUNNY     45  35  68 NW10      30.19S
BATON ROUGE    SUNNY     45  35  68 W6        30.23R
BOOTHVILLE     SUNNY     47  39  74 NW14      30.20S
BELLE CHASSE   MOSUNNY   49  36  61 NW8       30.20R
BOGALUSA*        N/A     45  37  73 W5        30.21R
GALLIANO*      SUNNY     50  39  66 MISG      30.21S
NEW ROADS*     FAIR      43  35  74 W3        30.23R
GONZALES*      FAIR      46  35  65 NW9       30.21F
HAMMOND*       SUNNY     46  36  66 NW7       30.22S
HOUMA*         SUNNY     48  36  61 NW9       30.22R
PORT FOURCHON* SUNNY     46  37  71 NW14      30.24S

$$

LAZ041-044-053-054-241700-
SOUTHWEST LOUISIANA

CITY           SKY/WX    TMP DP  RH WIND       PRES   REMARKS
LAKE CHARLES   SUNNY     48  39  71 W3        30.23S
LAFAYETTE      SUNNY     47  36  65 NW6       30.24R
PATTERSON      SUNNY     46  34  61 NW9       30.24S
SALT POINT       N/A     48  36  63 NW9       30.23R
NEW IBERIA     SUNNY     48  37  65 W8        30.25R
CHENAULT AIRPK SUNNY     46  37  71 W6        30.24S

$$

LAZ027-028-241700-
CENTRAL LOUISIANA

CITY           SKY/WX    TMP DP  RH WIND       PRES   REMARKS
FORT POLK      SUNNY     44  37  78 W5        30.20S
ALEXANDRIA INT SUNNY     43  37  79 W3        30.19R
ALEXANDRIA     SUNNY     46  38  73 W9        30.19R

$$

LAZ001-002-241700-
NORTHWEST LOUISIANA

CITY           SKY/WX    TMP DP  RH WIND       PRES   REMARKS
SHREVEPORT     MOSUNNY   47  35  63 W7        30.16R
BARKSDALE AFB  SUNNY     45  34  66 W7        30.16S
DTN SHREVEPORT SUNNY     44  33  65 W6        30.16S

$$

LAZ014-016-241700-
NORTHEAST LOUISIANA

CITY           SKY/WX    TMP DP  RH WIND       PRES   REMARKS
MONROE         SUNNY     44  37  76 W9        30.17R
TALLULAH       SUNNY     42  35  76 SW5       30.17S

$$




USA.gov is the U.S. government's official web portal to all federal, state and local government web resources and services.